User: anonymous   Login
Location: Unspecified
(0.0000°N, 0.0000°E)
Time: 15:26:45
(UTC+00:00)
Language:

Nova 2 - Orbit

View from above orbital plane
View from above orbital plane
View from above satellite
View from above satellite

Ground track
Ground track

The orbit data is extracted from the following two-line orbital elements,

1 19223U 88052A   17229.04333575  .00000044  00000-0  84157-4 0  9998
2 19223  89.9603  86.7806 0032285 108.2954  47.3624 13.22653806407900
Epoch (UTC): 17 August 2017 01:02:24
Eccentricity: 0.0032285
inclination: 89.9603°
perigee height: 1150 km
apogee height: 1199 km
right ascension of ascending node: 86.7806°
argument of perigee: 108.2954°
revolutions per day: 13.22653806
mean anomaly at epoch: 47.3624°
orbit number at epoch: 40790

The dashed part of the orbit path shows where the satellite is in the earth's shadow,  

DLR